Find Tian Lian 2-04

NORAD ID: 63361 Int'l Des: 2025-062 Owner: CAST Country: CN operational
HEOCIRCULARGSO

Live Position

Loading 3D Globe...

About Tian Lian 2-04

Description loading...

Upcoming Passes

Passes for default location (London). Set your location on the main map for personalized predictions.

Altitude History

Loading altitude history...

Two-Line Element Set

1 63361U 25062A 26104.84962874 -.00000139 00000-0 00000+0 0 9998
2 63361 4.5391 275.3250 0033239 11.0554 302.5508 1.00272171 3965
Epoch: Apr 14, 2026 • Age: 7 hours

Current Status

Altitude 35703.7 km
Velocity 3.08 km/s
Sub-Earth Point 4.14°N, 80.28°E
Launch Date Mar 26, 2025
Age 1 years
Type other

Technical Details

Classification Payload
Mass 5000.00 kg
Dry Mass 2000.00 kg
Total Mass 5000.00 kg
Length 6.00 m
Diameter 2.50 m
Span 20.00 m
Shape Box + 2 Pan + Dish
Manufacturer CAST
Bus Type DFH-4
Phase Status In Orbit
Owner/State CAST/CN

Most Searched